User: anonymous   Login
Location: Unspecified
(49.2170°N, 0.0000°E)
Time: 19:19:45
(UTC+00:00)
Language:

Tiros 1 despin weight - Orbit

View from above orbital plane
View from above orbital plane
View from above satellite
View from above satellite

Ground track
Ground track

The orbit data is extracted from the following two-line orbital elements,

1   115U 60002D   20220.50803078 -.00000019 +00000-0 +24896-4 0  9996
2   115 048.1673 028.7280 0034369 114.0478 246.4037 14.83597440199397
Epoch (UTC): 07 August 2020 12:11:33
Eccentricity: 0.0034369
inclination: 48.1673°
perigee height: 594 km
apogee height: 642 km
right ascension of ascending node: 28.7280°
argument of perigee: 114.0478°
revolutions per day: 14.83597440
mean anomaly at epoch: 246.4037°
orbit number at epoch: 19939

The dashed part of the orbit path shows where the satellite is in the earth's shadow,  

DLR